| time (UTC) | temp C | wind direction | speed KPH | gust KPH | rain 1hr cm | rain 24hr cm | rain mn cm | humidity % | barometer mb |
| 20260506203210 | 10 | 277 | 6.4 | 0.0 | 0.00 | 0.00 | 0.89 | 75 | 1011.0 |
| 20260506200210 | 10 | 294 | 9.7 | 0.0 | 0.00 | 0.00 | 0.89 | 75 | 1010.7 |
| 20260506193215 | 10 | 317 | 4.8 | 0.0 | 0.00 | 0.00 | 0.89 | 75 | 1010.5 |
| 20260506190211 | 10 | 350 | 8.0 | 0.0 | 0.00 | 0.00 | 0.89 | 75 | 1009.9 |
| 20260506183209 | 10 | 274 | 8.0 | 0.0 | 0.00 | 0.00 | 0.86 | 75 | 1009.6 |
| 20260506180216 | 11 | 250 | 8.0 | 0.0 | 0.00 | 0.00 | 0.81 | 75 | 1009.2 |
| 20260506173210 | 12 | 261 | 6.4 | 0.0 | 0.00 | 0.00 | 0.79 | 75 | 1008.9 |
| 20260506170215 | 12 | 270 | 0.0 | 0.0 | 0.00 | 0.00 | 0.74 | 75 | 1008.7 |
| 20260506163210 | 12 | 288 | 1.6 | 0.0 | 0.00 | 0.00 | 0.66 | 76 | 1008.6 |
| 20260506160210 | 12 | 328 | 3.2 | 0.0 | 0.00 | 0.00 | 0.56 | 77 | 1008.5 |
| 20260506153210 | 12 | 229 | 6.4 | 0.0 | 0.00 | 0.00 | 0.48 | 79 | 1008.3 |
| 20260506150210 | 12 | 315 | 3.2 | 0.0 | 0.00 | 0.00 | 0.23 | 81 | 1008.3 |
| 20260506143210 | 13 | 250 | 4.8 | 0.0 | 0.00 | 0.00 | 0.15 | 82 | 1007.9 |
| 20260506140210 | 14 | 183 | 3.2 | 0.0 | 0.00 | 0.00 | 0.08 | 84 | 1007.6 |
| 20260506133211 | 15 | 190 | 0.0 | 0.0 | 0.00 | 0.00 | 0.08 | 82 | 1007.0 |
| 20260506130211 | 16 | 160 | 0.0 | 0.0 | 0.00 | 0.00 | 0.03 | 75 | 1006.6 |
| 20260506123210 | 17 | 189 | 6.4 | 0.0 | 0.00 | 0.00 | 0.03 | 74 | 1006.6 |
| 20260506120210 | 17 | 257 | 3.2 | 0.0 | 0.00 | 0.00 | 0.03 | 72 | 1006.6 |
| 20260506113217 | 17 | 154 | 3.2 | 0.0 | 0.00 | 0.00 | 0.03 | 66 | 1007.0 |
| 20260506110210 | 16 | 156 | 9.7 | 0.0 | 0.00 | 0.00 | 0.03 | 71 | 1007.2 |
| 20260506100213 | 15 | 0 | 1.6 | 0.0 | 0.00 | 0.00 | 0.03 | 83 | 1007.7 |
| 20260506093211 | 14 | 0 | 1.6 | 0.0 | 0.00 | 0.00 | 0.03 | 82 | 1007.7 |
| 20260506090211 | 13 | 0 | 1.6 | 0.0 | 0.00 | 0.00 | 0.03 | 75 | 1007.8 |
| 20260506083211 | 11 | 26 | 3.2 | 0.0 | 0.00 | 0.00 | 0.03 | 74 | 1007.9 |
| 20260506080212 | 11 | 96 | 0.0 | 0.0 | 0.00 | 0.00 | 0.03 | 74 | 1008.0 |
| 20260506073211 | 11 | 96 | 0.0 | 0.0 | 0.00 | 0.00 | 0.03 | 74 | 1008.2 |
| 20260506070212 | 10 | 96 | 0.0 | 0.0 | 0.00 | 0.00 | 0.03 | 74 | 1007.9 |
| 20260506060210 | 8 | 24 | 0.0 | 0.0 | 0.00 | 0.00 | 0.03 | 75 | 1007.9 |
| 20260506050211 | 8 | 24 | 0.0 | 0.0 | 0.00 | 0.00 | 0.03 | 75 | 1008.2 |
| 20260506043211 | 8 | 24 | 0.0 | 0.0 | 0.00 | 0.00 | 0.03 | 75 | 1008.1 |
| 20260506040211 | 7 | 22 | 0.0 | 0.0 | 0.00 | 0.00 | 0.03 | 75 | 1008.3 |
| 20260506033211 | 7 | 58 | 0.0 | 0.0 | 0.00 | 0.00 | 0.03 | 76 | 1008.8 |
| 20260506030212 | 7 | 63 | 0.0 | 0.0 | 0.00 | 0.00 | 0.03 | 76 | 1008.5 |
| 20260506023211 | 8 | 41 | 0.0 | 0.0 | 0.00 | 0.00 | 0.03 | 76 | 1008.6 |
| 20260506020212 | 8 | 40 | 0.0 | 0.0 | 0.00 | 0.00 | 0.03 | 76 | 1008.9 |
| 20260506013211 | 8 | 15 | 3.2 | 0.0 | 0.00 | 0.00 | 0.03 | 76 | 1009.0 |
| 20260506010213 | 8 | 75 | 0.0 | 0.0 | 0.00 | 0.00 | 0.00 | 76 | 1009.0 |
| 20260506003209 | 9 | 118 | 3.2 | 0.0 | 0.00 | 0.00 | 0.00 | 76 | 1009.0 |
| 20260506000211 | 9 | 42 | 0.0 | 0.0 | 0.00 | 0.00 | 0.00 | 76 | 1009.5 |
| 20260505233209 | 10 | 42 | 0.0 | 0.0 | 0.00 | 0.00 | 0.00 | 76 | 1009.7 |
| 20260505230209 | 11 | 283 | 8.0 | 0.0 | 0.00 | 0.00 | 0.00 | 75 | 1009.6 |
| 20260505223210 | 11 | 336 | 3.2 | 0.0 | 0.00 | 0.00 | 0.00 | 76 | 1009.6 |
| 20260505220209 | 11 | 337 | 6.4 | 0.0 | 0.00 | 0.00 | 0.00 | 76 | 1009.5 |
| 20260505213211 | 11 | 15 | 3.2 | 0.0 | 0.00 | 0.00 | 0.46 | 76 | 1009.6 |
| 20260505210215 | 12 | 332 | 4.8 | 0.0 | 0.00 | 0.00 | 0.46 | 76 | 1009.7 |